Weather in Ricany

Czech Republic     49°59′30″N   14°39′26″E
temp.,
°C
wind,
m/s
gust,
m/s
humid.,
%
clouds,
%
prec.,
mm/h
press.,
hPa
HPBL,
m
13 april, tue
tue1323:00+1wsw2497100 0.3 1028146
02:00+1wsw1195100 0.4 102822
05:00+1wnw2388100 0.1 102897
08:00+2nnw3783100 0.1 1029542
11:00+4nnw5667100 0.1 10291358
14:00+6nnw5749100 0.3 10281995
17:00+6nnw5748100 0.1 10261994
20:00+3nnw3863100 0.1 1027296
14 april, wed
wed1423:00+3nw3867100 0.0 1028304
02:00+2nw41072100 0.0 1027350
05:00+1nw3980100 0.0 1027389
08:00+1nnw5973100 0.0 1028690
11:00+4nnw6755100 0.0 10281363
14:00+7nnw6843100 0.0 10262246
17:00+6nnw6743100 0.0 10241958
20:00+3nnw3359100 0.0 102559
15 april, thu
thu1523:00+1wnw2369100 0.0 102655
02:000wnw2275100 0.0 102638
05:00−1wnw228199 0.0 102625
08:00+1nw4774100 0.0 1026436
11:00+4nnw5757100 0.0 10261286
14:00+5nnw6753100 0.1 10251633
17:00+4nnw6771100 0.2 10241066
20:00+1nnw4888100 0.4 1025685
16 april, fri
fri1623:000wnw3798100 0.4 1024390
02:000w3799100 1.1 1023323
05:000w369898 0.4 1023334
08:00+1wnw3494100 0.6 1023384
11:00+2nw2391100 0.1 1024530
14:00+2nnw2398100 0.3 1024340
17:00+2nnw2399100 0.1 1023355
20:00+2nnw23100100 0.2 1024335
17 april, sat
sat1723:00+2wnw12100100 0.1 1024280
02:00+2nw1299100 0.3 1023253
05:00+2nnw1399100 0.1 1022243
08:00+2nnw2398100 0.1 1022269
11:00+4n3392100 0.0 1022476
14:00+7n3375100 0.1 1020952
17:00+6n3582100 0.1 1020604
20:00+4n3693100 0.1 1020264